ECHOSTAR 21             
1 42749U 17032A   19257.89866216  .00000050  00000-0  00000+0 0  9993
2 42749   6.0486 314.1747 0002523 224.3304 148.8466  1.00274526  8382
BREEZE-M R/B            
1 42750U 17032B   19255.88191589  .00000007  00000-0  00000+0 0  9998
2 42750  30.7194 110.9057 6694478 331.3759   4.4394  2.26360914 18750
BREEZE-M DEB [TANK]     
1 42751U 17032C   19257.26753954  .00000874  00000-0  20155-3 0  9992
2 42751  49.7077 222.7169 4641690 322.4340  12.7242  6.20382941 51304